SCOUT X-4 DEB

Satellite information

Favourite Embed

Satellite Type and Status

DEBRISIN ORBIT

Key statistics

Satellite SCOUT X-4 DEB at a glance.

Uptime

22541

Days in orbit

Revolutions

≈ 14.7

Per day

Orbit

LEO

Low Earth Orbit

Inclination

78.6

Latest

Satellite identification and parameters

Extended collection of information and parameters for SCOUT X-4 DEB.

Object identification

Identified? True

Debris? True

Object name: SCOUT X-4 DEB

International designator: 1963-053J

Object number (NORAD): 3750

Object ID (CCSDS): 3750

Country: UNITED STATES OF AMERICA (US)

Current information (Y/N): Y

RCS size: SMALL

Orbital parameters

Period: 98.106 minutes

Inclination: 78.5683 deg

SMA: 7046.224 km

Apoapsis: 804.245 km

Periapsis: 531.933 km

RAAN: 75.6797 deg

Eccentricy: 0.01932328

Argument of periapsis: 104.3589 deg

Mean anomaly: 257.914 deg

Mean motion: 14.67804176 rev/day

Mean motion (dot): 0.00059008 rev/day2

B* drag term: 0.0077377176 1/REarth

Two-line elements (TLE)

Creation date: Sept. 4, 2025, 10:13 a.m.

Reference frame: TEME

Reference center: EARTH

Epoch: Sept. 3, 2025, 10:43 p.m. UTC

TLE line 0: 0 SCOUT X-4 DEB

TLE line 1: 1 03750U 63053J 25246.94699133 .00059008 00000-0 77377-2 0 9990

TLE line 2: 2 03750 78.5683 75.6797 0193233 104.3589 257.9140 14.67804176766265

Live tracking on map

Real-time ground track for satellite SCOUT X-4 DEB.

In-orbit conjunctions

A list of the most updated potential collisions computed for object SCOUT X-4 DEB.

Target Orbit TCA Probability of collision Miss distance Type
CZ-6A DEB SSO 2025-08-15 23:12:17 0.0001064606 125.0 (m) DEBRIS
SL-24 PLAT SSO 2025-07-23 13:10:45 0.000435101 275.0 (m) DEBRIS
DMSP 5D-2 F14 DEB SSO 2025-03-01 09:24:12 0.0001755319 192.0 (m) DEBRIS
PICOSAT 1&2 (TETHERED) SSO 2024-12-13 04:29:31 0.0002036693 105.0 (m) PAYLOAD
FAISAT LEO 2024-06-01 22:55:54 0.0001857476 220.0 (m) PAYLOAD

Associated space launch

Explorer 19 was the second in a series of 3.66-m inflatable spheres placed into orbit to determine atmospheric densities.

SCOUT X-4 DEB was lifted into orbit during the mission ‘Scout X-4 | Explorer 19’, on board a Scout X-4 space rocket.

The launch took place on Dec. 19, 1963, 6:49 p.m. from Space Launch Complex 5.

For more information about the launch, click the button.

Launch to space Scout X-4 | Explorer 19
Scout X-4 | Explorer 19

Agency: N/A

Status: Launch Successful

Launch date: Dec. 19, 1963, 6:49 p.m. UTC

Rocket: Scout X-4

Launch pad: Space Launch Complex 5

Location: Vandenberg SFB, CA, USA

...

Latest news about this satellite

There are no fresh news available about this satellite. Check back as we update our databases every day.


Newsletter sign-up

Weekly statistics, charts and insights to help you stay on top of the space industry.